Вернуться в каталог

FENGYUN 1C DEB

АктивенSSO
NORAD 30393·DEBRIS·🇨🇳 China

Запущен May 10, 1999 с Taiyuan Satellite Launch Center

Loading…

Ближайшие Пролёты (ближайшие 24 часа)

TLE

СвежийSource: Space-Track

Эпоха: Sep 13, 2026, 10:31 UTC

1 30393U 99025ADG 26256.43854747 -.00000081  00000-0 -24497-4 0  9997
2 30393  99.1269 318.6331 0070738 224.8897 147.5028 13.99071699  1660

Отслеживайте FENGYUN 1C DEB в реальном времени с AllMySat

Download on the App Store